Weather in Orsha

Russia / Tver Oblast     56°54′39″N   36°13′37″E
temp.,
°C
wind,
m/s
gust,
m/s
humid.,
%
clouds,
%
prec.,
mm/h
press.,
hPa
HPBL,
m
20 april, tue
tue2000:00+4e41059100 0.0 1025541
03:00+2ene41064100 0.0 1025399
06:00+3e4868100 0.0 1024469
09:00+5e576129 0.0 1023837
12:00+9e5753100 0.0 10211255
15:00+8e6858100 0.0 10201265
18:00+4e51192100 0.4 1019753
21:00+5ene51192100 1.1 10171127
21 april, wed
wed2100:00+4ene51196100 0.2 1014815
03:00+3ene51197100 2.2 1010695
06:00+1ne51197100 3.7 1006490
09:00+1nne3899100 6.9 1004344
12:00+2nw2399100 0.8 1002199
15:00+2wsw4797100 0.9 1003507
18:00+3wsw4890100 0.2 1005714
21:00+3wsw4895100 0.3 1007629
22 april, thu
thu2200:00+3wsw4995100 0.1 1008707
03:00+3ssw3895100 0.1 1009345
06:00+4ssw3994100 0.1 1010310
09:00+7sw4683100 0.1 1011437
12:00+11ssw466544 0.1 10121175
15:00+13ssw565170 0.3 10121908
18:00+11s3861100 0.0 1012409
21:00+7sse310885 0.0 1014233
23 april, fri
fri2300:00+6sse4119173 0.0 1013271
03:00+6se410966 0.0 1012268
06:00+5sse4109799 0.0 1012282
09:00+11s51375100 0.0 1011860
12:00+15s61260100 0.1 10111799
15:00+10s288499 1.2 1011550
18:00+11wsw1278100 0.3 1010396
21:00+6nw2594100 4.6 1012256
24 april, sat
sat2400:00+6w1196100 3.4 1011139
03:00+5wnw2393100 4.5 1010736
06:00+3wnw4897100 5.1 1010524
09:00+4w3696100 8.3 1010514
12:00+6sw1374100 0.2 1010861
15:00+8sw3559100 0.8 10091387
18:00+8wsw3660100 0.2 1009332
21:00+4sw2374100 0.2 100943